DW8722 Weather Reports


time (UTC)temp
C
wind
direction
speed
KPH
gust
KPH
rain 1hr
cm
rain 24hr
cm
rain mn
cm
humidity
%
barometer
mb
20260902161540 31 88 3.2 14.5 0.00 0.00 0.00 62 1015.6
20260902160551 31 93 3.2 14.5 0.00 0.00 0.00 63 1015.6
20260902155542 31 102 4.8 14.5 0.00 0.00 0.00 64 1015.7
20260902154545 30 153 3.2 14.5 0.00 0.00 0.00 65 1015.6
20260902153521 30 126 4.8 14.5 0.00 0.00 0.00 65 1015.6
20260902152525 30 143 3.2 12.9 0.00 0.00 0.00 68 1015.5
20260902150425 29 165 3.2 11.3 0.00 0.00 0.00 70 1015.4
20260902145449 28 121 0.0 3.2 0.00 0.00 0.00 72 1015.4
20260902144428 28 118 0.0 0.0 0.00 0.00 0.00 72 1015.4
20260902143402 28 107 0.0 9.7 0.00 0.00 0.00 73 1015.4
20260902142347 28 131 0.0 9.7 0.00 0.00 0.00 74 1015.4
20260902141322 28 176 3.2 12.9 0.00 0.00 0.00 74 1015.3
20260902140311 28 121 1.6 11.3 0.00 0.00 0.00 73 1015.4
20260902135246 28 96 4.8 14.5 0.00 0.00 0.00 75 1015.4
20260902131914 26 98 3.2 11.3 0.00 0.00 0.00 79 1015.4
20260902130841 25 107 0.0 8.0 0.00 0.00 0.00 82 1015.2
20260902125843 24 88 0.0 0.0 0.00 0.00 0.00 83 1015.2
20260902124813 24 103 0.0 0.0 0.00 0.00 0.00 84 1015.0
20260902123836 23 103 0.0 0.0 0.00 0.00 0.00 84 1014.9
20260902122814 23 103 0.0 0.0 0.00 0.00 0.00 84 1014.8
20260902121820 23 104 0.0 0.0 0.00 0.00 0.00 84 1014.7
20260902120824 23 116 0.0 0.0 0.00 0.00 0.00 84 1014.7
20260902115802 23 122 0.0 0.0 0.00 0.00 0.00 84 1014.6
20260902113700 23 119 1.6 4.8 0.00 0.00 0.00 84 1014.7
20260902112724 23 124 1.6 1.6 0.00 0.00 0.00 84 1014.7
20260902111704 23 119 0.0 3.2 0.00 0.00 0.00 85 1014.7
20260902110657 23 118 0.0 0.0 0.00 0.00 0.00 85 1014.7
20260902105706 23 119 0.0 0.0 0.00 0.00 0.00 85 1014.8
20260902104633 23 125 0.0 0.0 0.00 0.00 0.00 85 1014.8
20260902102502 23 126 0.0 0.0 0.00 0.00 0.00 84 1014.6
20260902101451 23 126 0.0 0.0 0.00 0.00 0.00 83 1014.6
20260902100446 24 126 0.0 0.0 0.00 0.00 0.00 83 1014.6
20260902092855 24 128 0.0 0.0 0.00 0.00 0.00 81 1014.4
20260902091822 24 128 0.0 0.0 0.00 0.00 0.00 81 1014.4
20260902090825 24 128 0.0 0.0 0.00 0.00 0.00 80 1014.4
20260902085824 25 128 0.0 0.0 0.00 0.00 0.00 80 1014.3
20260902083643 25 128 0.0 0.0 0.00 0.00 0.00 78 1014.3
20260902082643 25 128 0.0 0.0 0.00 0.00 0.00 77 1014.3
20260902081622 25 128 0.0 0.0 0.00 0.00 0.00 76 1014.3
20260902080617 25 128 0.0 0.0 0.00 0.00 0.00 76 1014.3
20260902075547 26 128 0.0 0.0 0.00 0.00 0.00 75 1014.3
20260902074517 26 128 0.0 0.0 0.00 0.00 0.00 75 1014.3
20260902073500 26 128 1.6 4.8 0.00 0.00 0.00 74 1014.3
20260902072451 26 126 0.0 3.2 0.00 0.00 0.00 74 1014.4
20260902071420 26 126 1.6 4.8 0.00 0.00 0.00 73 1014.4
20260902065307 26 138 1.6 4.8 0.00 0.00 0.00 72 1014.4
20260902064312 27 133 1.6 3.2 0.00 0.00 0.00 71 1014.4
20260902062203 27 133 0.0 0.0 0.00 0.00 0.00 69 1014.3
20260902061201 27 135 0.0 6.4 0.00 0.00 0.00 69 1014.4
20260902060213 27 138 0.0 6.4 0.00 0.00 0.00 68 1014.4
20260902055146 27 128 1.6 8.0 0.00 0.00 0.00 67 1014.3
20260902054115 27 140 1.6 8.0 0.00 0.00 0.00 66 1014.2
20260902053114 28 159 1.6 6.4 0.00 0.00 0.00 66 1014.2
20260902052122 28 137 1.6 6.4 0.00 0.00 0.00 65 1014.2
20260902051143 28 136 1.6 6.4 0.00 0.00 0.00 64 1014.2
20260902050200 28 135 1.6 6.4 0.00 0.00 0.00 62 1014.2
20260902045149 28 138 1.6 11.3 0.00 0.00 0.00 62 1014.2
20260902044154 28 136 1.6 11.3 0.00 0.00 0.00 62 1014.2
20260902043218 29 121 3.2 9.7 0.00 0.00 0.00 61 1014.1
20260902042206 29 123 4.8 11.3 0.00 0.00 0.00 61 1014.1
20260902041201 29 128 3.2 11.3 0.00 0.00 0.00 61 1014.0
20260902035039 29 90 1.6 9.7 0.00 0.00 0.00 60 1013.7
20260902034057 30 82 1.6 9.7 0.00 0.00 0.00 59 1013.7
20260902033044 30 92 3.2 8.0 0.00 0.00 0.00 59 1013.7
20260902025804 30 88 0.0 4.8 0.00 0.00 0.00 57 1013.4
20260902024807 30 90 0.0 0.0 0.00 0.00 0.00 56 1013.2
20260902023828 31 90 0.0 0.0 0.00 0.00 0.00 55 1013.1
20260902022757 31 93 0.0 3.2 0.00 0.00 0.00 54 1012.9
20260902021819 31 105 1.6 4.8 0.00 0.00 0.00 53 1012.8
20260902015658 32 93 1.6 8.0 0.00 0.00 0.00 52 1012.4
20260902014702 32 84 3.2 9.7 0.00 0.00 0.00 51 1012.2
20260902012553 33 105 3.2 11.3 0.00 0.00 0.00 48 1012.0
20260902011550 33 112 3.2 9.7 0.00 0.00 0.00 47 1012.0
20260902010522 34 102 4.8 14.5 0.00 0.00 0.00 46 1011.9
20260902004339 35 88 4.8 16.1 0.00 0.00 0.00 44 1011.8
20260902002211 35 29 0.0 3.2 0.00 0.00 0.00 43 1011.9
20260902001200 35 75 0.0 1.6 0.00 0.00 0.00 42 1012.0
20260902000149 35 77 0.0 0.0 0.00 0.00 0.00 43 1012.1
20260901235153 35 77 0.0 0.0 0.00 0.00 0.00 43 1012.0
20260901234146 35 77 0.0 0.0 0.00 0.00 0.00 42 1012.1
20260901233207 36 77 0.0 4.8 0.00 0.00 0.00 42 1012.3
20260901232231 36 100 4.8 12.9 0.00 0.00 0.00 41 1012.3
20260901230111 36 101 4.8 16.1 0.00 0.00 0.00 40 1012.2
20260901225038 36 67 0.0 9.7 0.00 0.00 0.00 41 1012.3
20260901224025 35 71 0.0 3.2 0.00 0.00 0.00 42 1012.2
20260901223022 35 100 4.8 11.3 0.00 0.00 0.00 42 1012.3
20260901222019 36 98 3.2 11.3 0.00 0.00 0.00 42 1012.3
20260901221028 36 78 1.6 12.9 0.00 0.00 0.00 42 1012.4
20260901220051 36 88 3.2 17.7 0.00 0.00 0.00 40 1012.4
20260901213901 36 112 1.6 19.3 0.00 0.00 0.00 39 1012.5
20260901212849 36 96 6.4 19.3 0.00 0.00 0.00 39 1012.5
20260901211831 36 159 6.4 16.1 0.00 0.00 0.00 40 1012.7
20260901205700 37 86 6.4 17.7 0.00 0.00 0.00 39 1012.8
20260901204721 37 39 0.0 12.9 0.00 0.00 0.00 39 1013.0
20260901203737 37 214 4.8 0.0 0.00 0.00 0.00 39 1013.1
20260901201643 37 74 6.4 17.7 0.00 0.00 0.00 41 1013.3
20260901194435 36 72 8.0 14.5 0.00 0.00 0.00 42 1013.7
20260901193417 36 87 6.4 14.5 0.00 0.00 0.00 43 1013.7
20260901192432 36 355 4.8 17.7 0.00 0.00 0.00 43 1013.9
20260901190356 37 111 3.2 16.1 0.00 0.00 0.00 39 1014.2
20260901185409 37 79 4.8 14.5 0.00 0.00 0.00 42 1014.3
20260901184425 36 144 8.0 16.1 0.00 0.00 0.00 44 1014.5
20260901182307 36 107 6.4 17.7 0.00 0.00 0.00 44 1015.0
20260901180204 35 96 0.0 3.2 0.00 0.00 0.00 47 1015.5
20260901175214 35 79 0.0 9.7 0.00 0.00 0.00 49 1015.6
20260901174205 33 123 0.0 9.7 0.00 0.00 0.00 51 1015.8
20260901173134 33 118 0.0 0.0 0.00 0.00 0.00 52 1016.0
20260901172147 33 171 0.0 0.0 0.00 0.00 0.00 53 1016.1
20260901171204 33 87 0.0 0.0 0.00 0.00 0.00 53 1016.2
20260901164945 33 217 4.8 11.3 0.00 0.00 0.00 52 1016.3
20260901163927 33 182 0.0 4.8 0.00 0.00 0.00 52 1016.4